Time,TemperatureF,DewpointF,PressureIn,WindDirection,WindDirectionDegrees,WindSpeedMPH,WindSpeedGustMPH,Humidity,HourlyPrecipIn,Conditions,Clouds,dailyrainin,SolarRadiationWatts/m^2,SoftwareType,DateUTC
2013-07-24 00:01:00,53.2,39.7,30.19,SW,235,5.0,12.0,60,0.00,,,0.00,0,WeatherCatV1.15B25,2013-07-23 14:01:00,
2013-07-24 00:06:00,53.2,39.7,30.19,West,265,7.0,7.0,60,0.00,,,0.00,0,WeatherCatV1.15B25,2013-07-23 14:06:00,
2013-07-24 00:11:00,53.4,39.9,30.19,WSW,255,6.0,16.0,60,0.00,,,0.00,0,WeatherCatV1.15B25,2013-07-23 14:11:00,
2013-07-24 00:16:00,53.5,40.0,30.19,SSW,203,10.0,17.0,60,0.00,,,0.00,0,WeatherCatV1.15B25,2013-07-23 14:16:00,
2013-07-24 00:21:00,53.6,40.1,30.20,SW,221,3.0,9.0,60,0.00,,,0.00,0,WeatherCatV1.15B25,2013-07-23 14:21:00,
2013-07-24 00:26:00,53.5,40.0,30.19,SW,236,3.0,8.0,60,0.00,,,0.00,0,WeatherCatV1.15B25,2013-07-23 14:26:00,
2013-07-24 00:31:00,53.5,40.0,30.19,SSW,199,8.0,11.0,60,0.00,,,0.00,0,WeatherCatV1.15B25,2013-07-23 14:31:00,
2013-07-24 00:36:00,53.6,40.1,30.19,SSW,212,7.0,8.0,60,0.00,,,0.00,0,WeatherCatV1.15B25,2013-07-23 14:36:00,
2013-07-24 00:41:00,53.6,40.1,30.19,SW,216,8.0,11.0,60,0.00,,,0.00,0,WeatherCatV1.15B25,2013-07-23 14:41:00,
2013-07-24 00:46:00,53.7,40.1,30.19,SW,226,4.0,8.0,60,0.00,,,0.00,0,WeatherCatV1.15B25,2013-07-23 14:46:00,
2013-07-24 00:51:00,53.7,40.1,30.20,SW,224,2.0,9.0,60,0.00,,,0.00,0,WeatherCatV1.15B25,2013-07-23 14:51:00,
2013-07-24 00:56:00,53.6,40.1,30.20,SSW,213,5.0,14.0,60,0.00,,,0.00,0,WeatherCatV1.15B25,2013-07-23 14:56:00,
2013-07-24 01:01:00,53.5,40.0,30.19,West,265,1.0,8.0,60,0.00,,,0.00,0,WeatherCatV1.15B25,2013-07-23 15:01:00,
2013-07-24 01:06:00,53.5,40.0,30.20,SW,224,8.0,8.0,60,0.00,,,0.00,0,WeatherCatV1.15B25,2013-07-23 15:06:00,
2013-07-24 01:11:00,53.5,40.0,30.19,WSW,244,3.0,5.0,60,0.00,,,0.00,0,WeatherCatV1.15B25,2013-07-23 15:11:00,
2013-07-24 01:16:00,53.5,40.0,30.19,WSW,238,1.0,11.0,60,0.00,,,0.00,0,WeatherCatV1.15B25,2013-07-23 15:16:00,
2013-07-24 01:21:00,53.5,40.0,30.19,WNW,300,3.0,11.0,60,0.00,,,0.00,0,WeatherCatV1.15B25,2013-07-23 15:21:00,
2013-07-24 01:26:00,53.4,39.9,30.19,SW,226,5.0,7.0,60,0.00,,,0.00,0,WeatherCatV1.15B25,2013-07-23 15:26:00,
2013-07-24 01:31:00,53.3,39.8,30.19,SW,234,2.0,7.0,60,0.00,,,0.00,0,WeatherCatV1.15B25,2013-07-23 15:31:00,
2013-07-24 01:36:00,53.1,40.0,30.19,WNW,285,2.0,8.0,61,0.00,,,0.00,0,WeatherCatV1.15B25,2013-07-23 15:36:00,
2013-07-24 01:41:00,53.0,39.9,30.20,SSW,209,7.0,10.0,61,0.00,,,0.00,0,WeatherCatV1.15B25,2013-07-23 15:41:00,
2013-07-24 01:46:00,53.0,39.9,30.19,WSW,246,3.0,7.0,61,0.00,,,0.00,0,WeatherCatV1.15B25,2013-07-23 15:46:00,
2013-07-24 01:51:00,53.2,40.1,30.19,SW,236,2.0,7.0,61,0.00,,,0.00,0,WeatherCatV1.15B25,2013-07-23 15:51:00,
2013-07-24 01:56:00,53.4,40.3,30.19,SW,224,2.0,6.0,61,0.00,,,0.00,0,WeatherCatV1.15B25,2013-07-23 15:56:00,
2013-07-24 02:01:00,53.6,40.5,30.19,SW,214,9.0,12.0,61,0.00,,,0.00,0,WeatherCatV1.15B25,2013-07-23 16:01:00,
2013-07-24 02:06:00,53.8,40.2,30.19,SW,215,6.0,7.0,60,0.00,,,0.00,0,WeatherCatV1.15B25,2013-07-23 16:06:00,
2013-07-24 02:11:00,54.0,40.4,30.19,SW,226,7.0,16.0,60,0.00,,,0.00,0,WeatherCatV1.15B25,2013-07-23 16:11:00,
2013-07-24 02:16:00,54.3,40.7,30.19,SW,224,8.0,9.0,60,0.00,,,0.00,0,WeatherCatV1.15B25,2013-07-23 16:16:00,
2013-07-24 02:21:00,54.5,40.9,30.19,SW,236,3.0,7.0,60,0.00,,,0.00,0,WeatherCatV1.15B25,2013-07-23 16:21:00,
2013-07-24 02:26:00,54.6,40.6,30.19,SW,218,8.0,9.0,59,0.00,,,0.00,0,WeatherCatV1.15B25,2013-07-23 16:26:00,
2013-07-24 02:31:00,54.6,40.6,30.19,WSW,238,1.0,13.0,59,0.00,,,0.00,0,WeatherCatV1.15B25,2013-07-23 16:31:00,
2013-07-24 02:36:00,54.7,40.7,30.19,WSW,240,2.0,11.0,59,0.00,,,0.00,0,WeatherCatV1.15B25,2013-07-23 16:36:00,
2013-07-24 02:41:00,54.8,40.7,30.19,SSW,201,3.0,15.0,59,0.00,,,0.00,0,WeatherCatV1.15B25,2013-07-23 16:41:00,
2013-07-24 02:46:00,54.9,40.8,30.19,SW,221,5.0,17.0,59,0.00,,,0.00,0,WeatherCatV1.15B25,2013-07-23 16:46:00,
2013-07-24 02:51:00,54.9,40.8,30.19,SW,227,4.0,8.0,59,0.00,,,0.00,0,WeatherCatV1.15B25,2013-07-23 16:51:00,
2013-07-24 02:56:00,55.0,40.5,30.19,SSW,208,10.0,14.0,58,0.00,,,0.00,0,WeatherCatV1.15B25,2013-07-23 16:56:00,
2013-07-24 03:01:00,55.1,40.6,30.19,SW,233,4.0,8.0,58,0.00,,,0.00,0,WeatherCatV1.15B25,2013-07-23 17:01:00,
2013-07-24 03:06:00,55.2,40.7,30.20,SSW,211,9.0,15.0,58,0.00,,,0.00,0,WeatherCatV1.15B25,2013-07-23 17:06:00,
2013-07-24 03:11:00,55.2,40.7,30.20,SW,218,5.0,8.0,58,0.00,,,0.00,0,WeatherCatV1.15B25,2013-07-23 17:11:00,
2013-07-24 03:16:00,55.2,40.7,30.20,SW,215,2.0,12.0,58,0.00,,,0.00,0,WeatherCatV1.15B25,2013-07-23 17:16:00,
2013-07-24 03:21:00,55.2,40.7,30.20,SW,217,1.0,9.0,58,0.00,,,0.00,0,WeatherCatV1.15B25,2013-07-23 17:21:00,
2013-07-24 03:26:00,55.1,40.6,30.20,SSW,211,3.0,9.0,58,0.00,,,0.00,0,WeatherCatV1.15B25,2013-07-23 17:26:00,
2013-07-24 03:31:00,55.2,40.7,30.20,SSW,197,4.0,5.0,58,0.00,,,0.00,0,WeatherCatV1.15B25,2013-07-23 17:31:00,
2013-07-24 03:36:00,55.1,40.6,30.20,SW,224,5.0,10.0,58,0.00,,,0.00,0,WeatherCatV1.15B25,2013-07-23 17:36:00,
2013-07-24 03:41:00,55.2,40.7,30.20,SW,219,6.0,10.0,58,0.00,,,0.00,0,WeatherCatV1.15B25,2013-07-23 17:41:00,
2013-07-24 03:46:00,55.1,41.0,30.20,South,181,6.0,9.0,59,0.00,,,0.00,0,WeatherCatV1.15B25,2013-07-23 17:46:00,
2013-07-24 03:51:00,55.1,41.0,30.21,SSW,213,2.0,9.0,59,0.00,,,0.00,0,WeatherCatV1.15B25,2013-07-23 17:51:00,
2013-07-24 03:56:00,55.0,40.9,30.20,SW,224,4.0,11.0,59,0.00,,,0.00,0,WeatherCatV1.15B25,2013-07-23 17:56:00,
2013-07-24 04:01:00,55.0,40.9,30.21,SSW,210,2.0,8.0,59,0.00,,,0.00,0,WeatherCatV1.15B25,2013-07-23 18:01:00,
2013-07-24 04:06:00,55.0,41.4,30.21,SSW,207,4.0,12.0,60,0.00,,,0.00,0,WeatherCatV1.15B25,2013-07-23 18:06:00,
2013-07-24 04:11:00,54.7,41.5,30.20,SSW,207,5.0,14.0,61,0.00,,,0.00,0,WeatherCatV1.15B25,2013-07-23 18:11:00,
2013-07-24 04:16:00,54.5,41.3,30.21,SW,217,1.0,12.0,61,0.00,,,0.00,0,WeatherCatV1.15B25,2013-07-23 18:16:00,
2013-07-24 04:21:00,54.4,41.2,30.20,South,182,6.0,14.0,61,0.00,,,0.00,0,WeatherCatV1.15B25,2013-07-23 18:21:00,
2013-07-24 04:26:00,54.4,41.7,30.20,SW,217,0.0,7.0,62,0.00,,,0.00,0,WeatherCatV1.15B25,2013-07-23 18:26:00,
2013-07-24 04:31:00,54.3,41.6,30.20,SSE,165,4.0,9.0,62,0.00,,,0.00,0,WeatherCatV1.15B25,2013-07-23 18:31:00,
2013-07-24 04:36:00,54.3,41.6,30.20,SW,214,13.0,21.0,62,0.00,,,0.00,0,WeatherCatV1.15B25,2013-07-23 18:36:00,
2013-07-24 04:41:00,54.3,41.6,30.20,SW,228,2.0,7.0,62,0.00,,,0.00,0,WeatherCatV1.15B25,2013-07-23 18:41:00,
2013-07-24 04:46:00,54.3,41.1,30.20,WSW,244,1.0,14.0,61,0.00,,,0.00,0,WeatherCatV1.15B25,2013-07-23 18:46:00,
2013-07-24 04:51:00,54.3,41.6,30.21,South,181,6.0,14.0,62,0.00,,,0.00,0,WeatherCatV1.15B25,2013-07-23 18:51:00,
2013-07-24 04:56:00,54.3,41.6,30.21,SSW,198,6.0,12.0,62,0.00,,,0.00,0,WeatherCatV1.15B25,2013-07-23 18:56:00,
2013-07-24 05:01:00,54.3,41.6,30.21,South,186,5.0,12.0,62,0.00,,,0.00,0,WeatherCatV1.15B25,2013-07-23 19:01:00,
2013-07-24 05:06:00,54.2,41.9,30.21,SSW,213,3.0,14.0,63,0.00,,,0.00,0,WeatherCatV1.15B25,2013-07-23 19:06:00,
2013-07-24 05:11:00,54.0,42.9,30.22,SSW,193,7.0,7.0,66,0.00,,,0.00,0,WeatherCatV1.15B25,2013-07-23 19:11:00,
2013-07-24 05:16:00,53.7,43.0,30.21,SSW,209,5.0,14.0,67,0.00,,,0.00,0,WeatherCatV1.15B25,2013-07-23 19:16:00,
2013-07-24 05:21:00,53.4,42.3,30.21,SW,216,7.0,17.0,66,0.00,,,0.00,0,WeatherCatV1.15B25,2013-07-23 19:21:00,
2013-07-24 05:26:00,53.5,42.4,30.21,SSW,209,10.0,13.0,66,0.00,,,0.00,0,WeatherCatV1.15B25,2013-07-23 19:26:00,
2013-07-24 05:31:00,53.5,42.4,30.22,SSW,213,6.0,8.0,66,0.00,,,0.00,0,WeatherCatV1.15B25,2013-07-23 19:31:00,
2013-07-24 05:36:00,53.7,42.2,30.23,SW,229,5.0,12.0,65,0.00,,,0.00,0,WeatherCatV1.15B25,2013-07-23 19:36:00,
2013-07-24 05:41:00,53.7,43.0,30.22,SE,125,4.0,17.0,67,0.00,,,0.00,0,WeatherCatV1.15B25,2013-07-23 19:41:00,
2013-07-24 05:46:00,53.6,42.5,30.22,SW,234,5.0,13.0,66,0.00,,,0.00,0,WeatherCatV1.15B25,2013-07-23 19:46:00,
2013-07-24 05:51:00,53.7,42.6,30.22,SSW,203,3.0,20.0,66,0.00,,,0.00,0,WeatherCatV1.15B25,2013-07-23 19:51:00,
2013-07-24 05:56:00,53.9,42.4,30.22,SSW,204,4.0,14.0,65,0.00,,,0.00,0,WeatherCatV1.15B25,2013-07-23 19:56:00,
2013-07-24 06:01:00,54.0,42.5,30.22,SE,144,7.0,18.0,65,0.00,,,0.00,0,WeatherCatV1.15B25,2013-07-23 20:01:00,
2013-07-24 06:06:00,54.1,42.6,30.23,SW,226,3.0,16.0,65,0.00,,,0.00,0,WeatherCatV1.15B25,2013-07-23 20:06:00,
2013-07-24 06:11:00,54.3,42.8,30.23,SSW,200,9.0,16.0,65,0.00,,,0.00,0,WeatherCatV1.15B25,2013-07-23 20:11:00,
2013-07-24 06:16:00,54.2,43.1,30.23,SSW,196,2.0,18.0,66,0.00,,,0.00,0,WeatherCatV1.15B25,2013-07-23 20:16:00,
2013-07-24 06:21:00,54.1,43.4,30.24,South,191,12.0,12.0,67,0.00,,,0.00,0,WeatherCatV1.15B25,2013-07-23 20:21:00,
2013-07-24 06:26:00,54.1,43.4,30.23,SSW,200,8.0,13.0,67,0.00,,,0.00,0,WeatherCatV1.15B25,2013-07-23 20:26:00,
2013-07-24 06:31:00,54.1,43.0,30.24,SSW,211,3.0,18.0,66,0.00,,,0.00,0,WeatherCatV1.15B25,2013-07-23 20:31:00,
2013-07-24 06:36:00,54.1,43.8,30.24,SW,224,6.0,12.0,68,0.00,,,0.00,0,WeatherCatV1.15B25,2013-07-23 20:36:00,
2013-07-24 06:41:00,54.1,43.8,30.24,SSW,203,8.0,12.0,68,0.00,,,0.00,0,WeatherCatV1.15B25,2013-07-23 20:41:00,
2013-07-24 06:46:00,53.8,43.9,30.24,SSW,203,12.0,13.0,69,0.00,,,0.00,0,WeatherCatV1.15B25,2013-07-23 20:46:00,
2013-07-24 06:51:00,53.7,43.8,30.25,SW,221,8.0,13.0,69,0.00,,,0.00,0,WeatherCatV1.15B25,2013-07-23 20:51:00,
2013-07-24 06:56:00,53.8,43.5,30.25,SW,221,10.0,20.0,68,0.00,,,0.00,0,WeatherCatV1.15B25,2013-07-23 20:56:00,
2013-07-24 07:01:00,53.8,43.5,30.25,SSW,209,15.0,15.0,68,0.00,,,0.00,0,WeatherCatV1.15B25,2013-07-23 21:01:00,
2013-07-24 07:06:00,53.9,43.6,30.25,SSW,193,3.0,9.0,68,0.00,,,0.00,5,WeatherCatV1.15B25,2013-07-23 21:06:00,
2013-07-24 07:11:00,54.0,43.3,30.25,South,179,6.0,16.0,67,0.00,,,0.00,11,WeatherCatV1.15B25,2013-07-23 21:11:00,
2013-07-24 07:16:00,54.1,43.4,30.25,SSW,196,10.0,15.0,67,0.00,,,0.00,18,WeatherCatV1.15B25,2013-07-23 21:16:00,
2013-07-24 07:21:00,54.2,43.5,30.25,SSE,168,6.0,18.0,67,0.00,,,0.00,14,WeatherCatV1.15B25,2013-07-23 21:21:00,
2013-07-24 07:26:00,54.2,43.9,30.25,SSW,203,5.0,11.0,68,0.00,,,0.00,21,WeatherCatV1.15B25,2013-07-23 21:26:00,
2013-07-24 07:31:00,54.1,44.2,30.25,SW,222,6.0,14.0,69,0.00,,,0.00,39,WeatherCatV1.15B25,2013-07-23 21:31:00,
2013-07-24 07:36:00,54.1,44.2,30.25,South,179,6.0,8.0,69,0.00,,,0.00,47,WeatherCatV1.15B25,2013-07-23 21:36:00,
2013-07-24 07:41:00,54.3,44.0,30.26,SW,219,2.0,17.0,68,0.00,,,0.00,46,WeatherCatV1.15B25,2013-07-23 21:41:00,
2013-07-24 07:46:00,54.4,44.1,30.26,South,180,4.0,12.0,68,0.00,,,0.00,51,WeatherCatV1.15B25,2013-07-23 21:46:00,
2013-07-24 07:51:00,54.5,43.8,30.26,SSW,209,9.0,11.0,67,0.00,,,0.00,81,WeatherCatV1.15B25,2013-07-23 21:51:00,
2013-07-24 07:56:00,54.6,43.5,30.26,South,186,4.0,12.0,66,0.00,,,0.00,39,WeatherCatV1.15B25,2013-07-23 21:56:00,
2013-07-24 08:01:00,54.5,44.2,30.27,WSW,239,4.0,17.0,68,0.00,,,0.00,37,WeatherCatV1.15B25,2013-07-23 22:01:00,
2013-07-24 08:06:00,54.3,44.3,30.27,South,181,8.0,12.0,69,0.00,,,0.00,39,WeatherCatV1.15B25,2013-07-23 22:06:00,
2013-07-24 08:11:00,54.1,44.9,30.28,SSW,205,4.0,17.0,71,0.00,,,0.00,49,WeatherCatV1.15B25,2013-07-23 22:11:00,
2013-07-24 08:16:00,53.9,45.1,30.27,SSW,209,5.0,13.0,72,0.00,,,0.00,56,WeatherCatV1.15B25,2013-07-23 22:16:00,
2013-07-24 08:21:00,53.8,45.0,30.27,SSW,205,7.0,12.0,72,0.00,,,0.00,130,WeatherCatV1.15B25,2013-07-23 22:21:00,
2013-07-24 08:27:00,53.9,45.1,30.28,South,179,4.0,13.0,72,0.00,,,0.00,70,WeatherCatV1.15B25,2013-07-23 22:27:00,
2013-07-24 08:31:00,53.7,45.3,30.28,SSW,193,7.0,19.0,73,0.00,,,0.00,79,WeatherCatV1.15B25,2013-07-23 22:31:00,
2013-07-24 08:37:00,53.6,45.5,30.28,SSE,159,5.0,10.0,74,0.00,,,0.00,69,WeatherCatV1.15B25,2013-07-23 22:37:00,
2013-07-24 08:42:00,53.6,45.2,30.28,South,179,12.0,12.0,73,0.00,,,0.00,185,WeatherCatV1.15B25,2013-07-23 22:42:00,
2013-07-24 08:47:00,53.8,45.0,30.28,SW,230,6.0,11.0,72,0.00,,,0.00,84,WeatherCatV1.15B25,2013-07-23 22:47:00,
2013-07-24 08:52:00,54.0,45.2,30.28,SW,226,6.0,14.0,72,0.00,,,0.00,49,WeatherCatV1.15B25,2013-07-23 22:52:00,
2013-07-24 08:57:00,54.1,44.9,30.29,South,173,4.0,7.0,71,0.00,,,0.00,77,WeatherCatV1.15B25,2013-07-23 22:57:00,
2013-07-24 09:02:00,54.2,45.0,30.29,SSW,205,7.0,10.0,71,0.00,,,0.00,111,WeatherCatV1.15B25,2013-07-23 23:02:00,
2013-07-24 09:07:00,54.6,45.0,30.29,West,267,4.0,15.0,70,0.00,,,0.00,197,WeatherCatV1.15B25,2013-07-23 23:07:00,
2013-07-24 09:12:00,55.0,45.4,30.29,SSW,200,8.0,16.0,70,0.00,,,0.00,81,WeatherCatV1.15B25,2013-07-23 23:12:00,
2013-07-24 09:17:00,55.1,45.1,30.29,SSW,204,4.0,16.0,69,0.00,,,0.00,114,WeatherCatV1.15B25,2013-07-23 23:17:00,
2013-07-24 09:22:00,55.2,45.2,30.29,SW,226,6.0,10.0,69,0.00,,,0.00,90,WeatherCatV1.15B25,2013-07-23 23:22:00,
2013-07-24 09:27:00,55.4,45.4,30.30,South,181,7.0,11.0,69,0.00,,,0.00,114,WeatherCatV1.15B25,2013-07-23 23:27:00,
2013-07-24 09:32:00,55.3,46.1,30.30,South,191,3.0,16.0,71,0.00,,,0.00,148,WeatherCatV1.15B25,2013-07-23 23:32:00,
2013-07-24 09:37:00,55.2,46.3,30.30,South,183,10.0,19.0,72,0.00,,,0.00,127,WeatherCatV1.15B25,2013-07-23 23:37:00,
2013-07-24 09:42:00,55.1,46.6,30.30,South,184,8.0,17.0,73,0.00,,,0.00,86,WeatherCatV1.15B25,2013-07-23 23:42:00,
2013-07-24 09:47:00,54.8,46.7,30.30,South,181,7.0,10.0,74,0.00,,,0.00,83,WeatherCatV1.15B25,2013-07-23 23:47:00,
2013-07-24 09:52:00,54.7,46.6,30.30,SW,234,7.0,12.0,74,0.00,,,0.00,171,WeatherCatV1.15B25,2013-07-23 23:52:00,
2013-07-24 09:57:00,55.1,47.0,30.30,South,191,5.0,7.0,74,0.00,,,0.00,169,WeatherCatV1.15B25,2013-07-23 23:57:00,
2013-07-24 10:02:00,55.4,46.5,30.30,SSW,209,4.0,9.0,72,0.00,,,0.00,135,WeatherCatV1.15B25,2013-07-24 00:02:00,
2013-07-24 10:07:00,55.7,46.1,30.30,South,174,11.0,12.0,70,0.00,,,0.00,163,WeatherCatV1.15B25,2013-07-24 00:07:00,
2013-07-24 10:12:00,56.1,45.7,30.30,South,179,8.0,12.0,68,0.00,,,0.00,237,WeatherCatV1.15B25,2013-07-24 00:12:00,
2013-07-24 10:17:00,56.5,46.1,30.30,SSW,208,7.0,15.0,68,0.00,,,0.00,178,WeatherCatV1.15B25,2013-07-24 00:17:00,
2013-07-24 10:22:00,56.9,46.1,30.30,SW,217,8.0,9.0,67,0.00,,,0.00,225,WeatherCatV1.15B25,2013-07-24 00:22:00,
2013-07-24 10:27:00,57.1,46.2,30.30,SW,219,6.0,6.0,67,0.00,,,0.00,188,WeatherCatV1.15B25,2013-07-24 00:27:00,
2013-07-24 10:32:00,57.3,46.0,30.30,South,172,8.0,17.0,66,0.00,,,0.00,118,WeatherCatV1.15B25,2013-07-24 00:32:00,
2013-07-24 10:37:00,57.2,46.3,30.31,South,179,9.0,10.0,67,0.00,,,0.00,132,WeatherCatV1.15B25,2013-07-24 00:37:00,
2013-07-24 10:42:00,56.9,47.2,30.31,SSW,195,8.0,16.0,70,0.00,,,0.00,158,WeatherCatV1.15B25,2013-07-24 00:42:00,
2013-07-24 10:47:00,56.8,47.1,30.30,WSW,243,8.0,9.0,70,0.00,,,0.00,142,WeatherCatV1.15B25,2013-07-24 00:47:00,
2013-07-24 10:52:00,56.9,46.8,30.30,SSW,195,6.0,11.0,69,0.00,,,0.00,183,WeatherCatV1.15B25,2013-07-24 00:52:00,
2013-07-24 10:57:00,57.2,47.1,30.30,South,181,4.0,15.0,69,0.00,,,0.00,195,WeatherCatV1.15B25,2013-07-24 00:57:00,
2013-07-24 11:02:00,57.4,47.3,30.30,SE,146,10.0,20.0,69,0.00,,,0.00,193,WeatherCatV1.15B25,2013-07-24 01:02:00,
2013-07-24 11:07:00,57.6,47.5,30.30,South,177,9.0,11.0,69,0.00,,,0.00,162,WeatherCatV1.15B25,2013-07-24 01:07:00,
2013-07-24 11:12:00,57.8,47.7,30.30,SSW,200,6.0,12.0,69,0.00,,,0.00,378,WeatherCatV1.15B25,2013-07-24 01:12:00,
2013-07-24 11:17:00,58.1,47.2,30.30,South,181,7.0,13.0,67,0.00,,,0.00,269,WeatherCatV1.15B25,2013-07-24 01:17:00,
2013-07-24 11:22:00,58.3,47.4,30.30,South,181,9.0,17.0,67,0.00,,,0.00,250,WeatherCatV1.15B25,2013-07-24 01:22:00,
2013-07-24 11:27:00,58.4,47.1,30.30,South,179,9.0,16.0,66,0.00,,,0.00,339,WeatherCatV1.15B25,2013-07-24 01:27:00,
2013-07-24 11:32:00,58.5,47.6,30.30,SSW,203,8.0,15.0,67,0.00,,,0.00,176,WeatherCatV1.15B25,2013-07-24 01:32:00,
2013-07-24 11:37:00,58.6,47.7,30.30,SSE,163,6.0,16.0,67,0.00,,,0.00,260,WeatherCatV1.15B25,2013-07-24 01:37:00,
2013-07-24 11:42:00,58.7,48.2,30.29,SSW,206,6.0,18.0,68,0.00,,,0.00,192,WeatherCatV1.15B25,2013-07-24 01:42:00,
2013-07-24 11:47:00,58.9,48.4,30.29,SSE,160,9.0,16.0,68,0.00,,,0.00,250,WeatherCatV1.15B25,2013-07-24 01:47:00,
2013-07-24 11:52:00,59.1,48.9,30.29,South,183,9.0,17.0,69,0.00,,,0.00,332,WeatherCatV1.15B25,2013-07-24 01:52:00,
2013-07-24 11:57:00,59.3,49.5,30.29,South,178,18.0,27.0,70,0.00,,,0.00,380,WeatherCatV1.15B25,2013-07-24 01:57:00,
2013-07-24 12:02:00,59.8,50.0,30.29,South,181,18.0,22.0,70,0.00,,,0.00,499,WeatherCatV1.15B25,2013-07-24 02:02:00,
2013-07-24 12:07:00,60.1,49.9,30.28,SSE,166,13.0,20.0,69,0.00,,,0.00,605,WeatherCatV1.15B25,2013-07-24 02:07:00,
2013-07-24 12:12:00,60.4,50.6,30.29,South,180,19.0,24.0,70,0.00,,,0.00,700,WeatherCatV1.15B25,2013-07-24 02:12:00,
2013-07-24 12:17:00,60.4,50.2,30.28,SSE,156,17.0,22.0,69,0.00,,,0.00,418,WeatherCatV1.15B25,2013-07-24 02:17:00,
2013-07-24 12:22:00,59.9,49.7,30.28,South,179,4.0,23.0,69,0.00,,,0.00,380,WeatherCatV1.15B25,2013-07-24 02:22:00,
2013-07-24 12:27:00,59.7,50.3,30.28,South,177,15.0,26.0,71,0.00,,,0.00,573,WeatherCatV1.15B25,2013-07-24 02:27:00,
2013-07-24 12:32:00,59.6,49.4,30.28,SSE,167,19.0,23.0,69,0.00,,,0.00,566,WeatherCatV1.15B25,2013-07-24 02:32:00,
2013-07-24 12:37:00,59.6,49.4,30.28,SSE,162,12.0,22.0,69,0.00,,,0.00,557,WeatherCatV1.15B25,2013-07-24 02:37:00,
2013-07-24 12:42:00,59.9,49.3,30.28,SE,146,10.0,20.0,68,0.00,,,0.00,564,WeatherCatV1.15B25,2013-07-24 02:42:00,
2013-07-24 12:47:00,60.0,49.0,30.28,South,187,10.0,24.0,67,0.00,,,0.00,596,WeatherCatV1.15B25,2013-07-24 02:47:00,
2013-07-24 12:52:00,60.1,49.5,30.28,South,179,12.0,22.0,68,0.00,,,0.00,559,WeatherCatV1.15B25,2013-07-24 02:52:00,
2013-07-24 12:57:00,60.3,48.9,30.28,South,177,12.0,23.0,66,0.00,,,0.00,554,WeatherCatV1.15B25,2013-07-24 02:57:00,
2013-07-24 13:02:00,60.3,49.3,30.28,South,180,16.0,20.0,67,0.00,,,0.00,563,WeatherCatV1.15B25,2013-07-24 03:02:00,
2013-07-24 13:07:00,60.4,49.8,30.27,South,170,17.0,23.0,68,0.00,,,0.00,573,WeatherCatV1.15B25,2013-07-24 03:07:00,
2013-07-24 13:12:00,60.2,49.2,30.28,South,180,22.0,26.0,67,0.00,,,0.00,287,WeatherCatV1.15B25,2013-07-24 03:12:00,
2013-07-24 13:17:00,60.1,49.5,30.27,SSW,200,18.0,23.0,68,0.00,,,0.00,547,WeatherCatV1.15B25,2013-07-24 03:17:00,
2013-07-24 13:22:00,60.2,49.6,30.28,East,99,13.0,25.0,68,0.00,,,0.00,564,WeatherCatV1.15B25,2013-07-24 03:22:00,
2013-07-24 13:27:00,60.3,49.7,30.28,SSE,156,19.0,24.0,68,0.00,,,0.00,666,WeatherCatV1.15B25,2013-07-24 03:27:00,
2013-07-24 13:32:00,60.4,50.2,30.28,South,175,11.0,20.0,69,0.00,,,0.00,271,WeatherCatV1.15B25,2013-07-24 03:32:00,
2013-07-24 13:37:00,59.8,49.6,30.28,SSE,158,6.0,20.0,69,0.00,,,0.00,178,WeatherCatV1.15B25,2013-07-24 03:37:00,
2013-07-24 13:42:00,59.9,49.3,30.28,South,180,22.0,24.0,68,0.00,,,0.00,295,WeatherCatV1.15B25,2013-07-24 03:42:00,
2013-07-24 13:47:00,59.9,49.3,30.28,SSW,207,11.0,16.0,68,0.00,,,0.00,404,WeatherCatV1.15B25,2013-07-24 03:47:00,
2013-07-24 13:52:00,59.8,48.8,30.28,South,180,13.0,23.0,67,0.00,,,0.00,185,WeatherCatV1.15B25,2013-07-24 03:52:00,
2013-07-24 13:57:00,59.5,48.9,30.28,SSE,154,14.0,22.0,68,0.00,,,0.00,137,WeatherCatV1.15B25,2013-07-24 03:57:00,
2013-07-24 14:01:00,59.4,49.2,30.28,SSW,201,5.0,18.0,69,0.00,,,0.00,128,WeatherCatV1.15B25,2013-07-24 04:01:00,
2013-07-24 14:06:00,59.3,49.1,30.28,South,172,13.0,17.0,69,0.00,,,0.00,113,WeatherCatV1.15B25,2013-07-24 04:06:00,
2013-07-24 14:11:00,59.1,48.9,30.28,SSE,168,12.0,13.0,69,0.00,,,0.00,81,WeatherCatV1.15B25,2013-07-24 04:11:00,
2013-07-24 14:16:00,59.2,49.4,30.29,South,172,4.0,15.0,70,0.00,,,0.00,142,WeatherCatV1.15B25,2013-07-24 04:16:00,
2013-07-24 14:21:00,59.4,49.6,30.29,South,179,11.0,13.0,70,0.00,,,0.00,243,WeatherCatV1.15B25,2013-07-24 04:21:00,
2013-07-24 14:26:00,59.5,49.3,30.29,South,180,11.0,17.0,69,0.00,,,0.00,188,WeatherCatV1.15B25,2013-07-24 04:26:00,
2013-07-24 14:31:00,59.5,49.3,30.29,South,177,16.0,18.0,69,0.00,,,0.00,116,WeatherCatV1.15B25,2013-07-24 04:31:00,
2013-07-24 14:36:00,59.2,49.0,30.29,SSE,153,10.0,22.0,69,0.00,,,0.00,84,WeatherCatV1.15B25,2013-07-24 04:36:00,
2013-07-24 14:41:00,59.1,49.3,30.29,South,181,12.0,23.0,70,0.00,,,0.00,123,WeatherCatV1.15B25,2013-07-24 04:41:00,
2013-07-24 14:46:00,59.0,48.8,30.29,South,175,17.0,22.0,69,0.00,,,0.00,142,WeatherCatV1.15B25,2013-07-24 04:46:00,
2013-07-24 14:51:00,59.0,48.8,30.29,SSW,203,9.0,19.0,69,0.00,,,0.00,135,WeatherCatV1.15B25,2013-07-24 04:51:00,
2013-07-24 14:56:00,59.1,48.9,30.29,SSW,206,18.0,21.0,69,0.00,,,0.00,137,WeatherCatV1.15B25,2013-07-24 04:56:00,
2013-07-24 15:01:00,59.2,49.0,30.30,SSW,194,18.0,22.0,69,0.00,,,0.00,146,WeatherCatV1.15B25,2013-07-24 05:01:00,
2013-07-24 15:06:00,59.2,48.6,30.29,South,180,14.0,18.0,68,0.00,,,0.00,141,WeatherCatV1.15B25,2013-07-24 05:06:00,
2013-07-24 15:11:00,59.2,48.6,30.30,SW,217,20.0,22.0,68,0.00,,,0.00,144,WeatherCatV1.15B25,2013-07-24 05:11:00,
2013-07-24 15:16:00,59.3,48.7,30.30,South,181,17.0,21.0,68,0.00,,,0.00,155,WeatherCatV1.15B25,2013-07-24 05:16:00,
2013-07-24 15:21:00,59.2,48.2,30.30,South,180,9.0,26.0,67,0.00,,,0.00,179,WeatherCatV1.15B25,2013-07-24 05:21:00,
2013-07-24 15:26:00,59.3,48.3,30.30,WSW,248,9.0,19.0,67,0.00,,,0.00,132,WeatherCatV1.15B25,2013-07-24 05:26:00,
2013-07-24 15:31:00,59.3,48.7,30.30,SSE,165,12.0,23.0,68,0.00,,,0.00,123,WeatherCatV1.15B25,2013-07-24 05:31:00,
2013-07-24 15:36:00,59.2,49.0,30.30,SSE,149,4.0,21.0,69,0.00,,,0.00,76,WeatherCatV1.15B25,2013-07-24 05:36:00,
2013-07-24 15:41:00,59.2,49.0,30.30,South,180,14.0,23.0,69,0.00,,,0.00,81,WeatherCatV1.15B25,2013-07-24 05:41:00,
2013-07-24 15:46:00,59.1,48.5,30.30,South,181,11.0,16.0,68,0.00,,,0.00,83,WeatherCatV1.15B25,2013-07-24 05:46:00,
2013-07-24 15:51:00,59.1,48.5,30.30,SE,144,12.0,23.0,68,0.00,,,0.00,97,WeatherCatV1.15B25,2013-07-24 05:51:00,
2013-07-24 15:56:00,59.2,48.6,30.30,SSE,148,12.0,19.0,68,0.00,,,0.00,114,WeatherCatV1.15B25,2013-07-24 05:56:00,
2013-07-24 16:01:00,59.2,49.0,30.30,SSW,205,15.0,16.0,69,0.00,,,0.00,97,WeatherCatV1.15B25,2013-07-24 06:01:00,
2013-07-24 16:06:00,59.2,48.6,30.30,South,174,11.0,21.0,68,0.00,,,0.00,105,WeatherCatV1.15B25,2013-07-24 06:06:00,
2013-07-24 16:11:00,59.1,48.5,30.30,South,181,14.0,23.0,68,0.00,,,0.00,91,WeatherCatV1.15B25,2013-07-24 06:11:00,
2013-07-24 16:16:00,59.2,49.0,30.30,South,170,15.0,21.0,69,0.00,,,0.00,79,WeatherCatV1.15B25,2013-07-24 06:16:00,
2013-07-24 16:21:00,59.2,48.6,30.30,SE,131,21.0,23.0,68,0.00,,,0.00,51,WeatherCatV1.15B25,2013-07-24 06:21:00,
2013-07-24 16:26:00,59.1,48.5,30.31,SSW,205,12.0,23.0,68,0.00,,,0.00,37,WeatherCatV1.15B25,2013-07-24 06:26:00,
2013-07-24 16:31:00,59.0,48.1,30.31,SE,139,9.0,17.0,67,0.00,,,0.00,28,WeatherCatV1.15B25,2013-07-24 06:31:00,
2013-07-24 16:36:00,59.0,48.5,30.31,South,170,9.0,14.0,68,0.00,,,0.00,25,WeatherCatV1.15B25,2013-07-24 06:36:00,
2013-07-24 16:41:00,59.0,48.5,30.31,South,181,15.0,19.0,68,0.00,,,0.00,21,WeatherCatV1.15B25,2013-07-24 06:41:00,
2013-07-24 16:46:00,59.0,48.5,30.31,South,186,10.0,13.0,68,0.00,,,0.00,16,WeatherCatV1.15B25,2013-07-24 06:46:00,
2013-07-24 16:51:00,59.0,48.5,30.31,South,186,11.0,19.0,68,0.00,,,0.00,11,WeatherCatV1.15B25,2013-07-24 06:51:00,
2013-07-24 16:56:00,59.1,48.5,30.32,South,181,19.0,19.0,68,0.00,,,0.00,9,WeatherCatV1.15B25,2013-07-24 06:56:00,
2013-07-24 17:01:00,59.2,48.6,30.32,SSE,152,10.0,21.0,68,0.00,,,0.00,7,WeatherCatV1.15B25,2013-07-24 07:01:00,
2013-07-24 17:06:00,59.2,48.6,30.32,South,181,14.0,18.0,68,0.00,,,0.00,0,WeatherCatV1.15B25,2013-07-24 07:06:00,
2013-07-24 17:11:00,59.2,48.2,30.32,SW,223,8.0,17.0,67,0.00,,,0.00,0,WeatherCatV1.15B25,2013-07-24 07:11:00,
2013-07-24 17:16:00,58.9,48.4,30.32,South,181,8.0,8.0,68,0.00,,,0.00,0,WeatherCatV1.15B25,2013-07-24 07:16:00,
2013-07-24 17:21:00,58.7,48.2,30.32,South,180,11.0,12.0,68,0.00,,,0.00,0,WeatherCatV1.15B25,2013-07-24 07:21:00,
2013-07-24 17:26:00,58.7,48.6,30.32,SSE,151,6.0,6.0,69,0.00,,,0.00,0,WeatherCatV1.15B25,2013-07-24 07:26:00,
2013-07-24 17:31:00,58.4,47.9,30.33,South,181,7.0,8.0,68,0.00,,,0.00,0,WeatherCatV1.15B25,2013-07-24 07:31:00,
2013-07-24 17:36:00,58.3,47.8,30.33,SSW,203,8.0,10.0,68,0.00,,,0.00,0,WeatherCatV1.15B25,2013-07-24 07:36:00,
2013-07-24 17:41:00,58.1,47.6,30.33,SW,233,4.0,12.0,68,0.00,,,0.00,0,WeatherCatV1.15B25,2013-07-24 07:41:00,
2013-07-24 17:46:00,57.8,47.3,30.33,SSW,203,3.0,10.0,68,0.00,,,0.00,0,WeatherCatV1.15B25,2013-07-24 07:46:00,
2013-07-24 17:51:00,57.8,47.3,30.33,South,191,5.0,12.0,68,0.00,,,0.00,0,WeatherCatV1.15B25,2013-07-24 07:51:00,
2013-07-24 17:56:00,57.8,47.3,30.33,South,181,5.0,13.0,68,0.00,,,0.00,0,WeatherCatV1.15B25,2013-07-24 07:56:00,
2013-07-24 18:01:00,57.8,47.3,30.33,SE,145,3.0,7.0,68,0.00,,,0.00,0,WeatherCatV1.15B25,2013-07-24 08:01:00,
2013-07-24 18:06:00,57.8,47.3,30.33,SSW,193,3.0,12.0,68,0.00,,,0.00,0,WeatherCatV1.15B25,2013-07-24 08:06:00,
2013-07-24 18:11:00,57.8,47.7,30.33,SW,217,7.0,11.0,69,0.00,,,0.00,0,WeatherCatV1.15B25,2013-07-24 08:11:00,
2013-07-24 18:16:00,57.7,47.2,30.33,South,186,8.0,9.0,68,0.00,,,0.00,0,WeatherCatV1.15B25,2013-07-24 08:16:00,
2013-07-24 18:21:00,57.6,47.1,30.33,South,180,4.0,10.0,68,0.00,,,0.00,0,WeatherCatV1.15B25,2013-07-24 08:21:00,
2013-07-24 18:26:00,57.4,46.9,30.33,SSW,196,6.0,9.0,68,0.00,,,0.00,0,WeatherCatV1.15B25,2013-07-24 08:26:00,
2013-07-24 18:31:00,57.3,46.8,30.34,SSW,203,6.0,8.0,68,0.00,,,0.00,0,WeatherCatV1.15B25,2013-07-24 08:31:00,
2013-07-24 18:36:00,57.1,46.6,30.34,South,179,3.0,7.0,68,0.00,,,0.00,0,WeatherCatV1.15B25,2013-07-24 08:36:00,
2013-07-24 18:41:00,57.1,46.6,30.34,South,179,7.0,11.0,68,0.00,,,0.00,0,WeatherCatV1.15B25,2013-07-24 08:41:00,
2013-07-24 18:46:00,57.2,46.7,30.34,SW,224,3.0,7.0,68,0.00,,,0.00,0,WeatherCatV1.15B25,2013-07-24 08:46:00,
2013-07-24 18:51:00,57.2,46.3,30.34,South,169,8.0,12.0,67,0.00,,,0.00,0,WeatherCatV1.15B25,2013-07-24 08:51:00,
2013-07-24 18:56:00,57.2,46.3,30.34,SSW,194,3.0,10.0,67,0.00,,,0.00,0,WeatherCatV1.15B25,2013-07-24 08:56:00,
2013-07-24 19:01:00,57.3,46.0,30.34,SE,146,4.0,7.0,66,0.00,,,0.00,0,WeatherCatV1.15B25,2013-07-24 09:01:00,
2013-07-24 19:06:00,57.3,46.0,30.35,South,169,6.0,12.0,66,0.00,,,0.00,0,WeatherCatV1.15B25,2013-07-24 09:06:00,
2013-07-24 19:11:00,57.3,46.0,30.35,SSE,160,7.0,8.0,66,0.00,,,0.00,0,WeatherCatV1.15B25,2013-07-24 09:11:00,
2013-07-24 19:16:00,57.3,46.0,30.35,South,181,4.0,13.0,66,0.00,,,0.00,0,WeatherCatV1.15B25,2013-07-24 09:16:00,
2013-07-24 19:21:00,57.4,46.1,30.35,SSW,210,4.0,13.0,66,0.00,,,0.00,0,WeatherCatV1.15B25,2013-07-24 09:21:00,
2013-07-24 19:26:00,57.4,46.1,30.35,South,179,2.0,12.0,66,0.00,,,0.00,0,WeatherCatV1.15B25,2013-07-24 09:26:00,
2013-07-24 19:31:00,57.4,46.1,30.35,South,181,7.0,9.0,66,0.00,,,0.00,0,WeatherCatV1.15B25,2013-07-24 09:31:00,
2013-07-24 19:36:00,57.4,46.1,30.35,WSW,242,6.0,9.0,66,0.00,,,0.00,0,WeatherCatV1.15B25,2013-07-24 09:36:00,
2013-07-24 19:41:00,57.3,46.0,30.35,South,191,6.0,9.0,66,0.00,,,0.00,0,WeatherCatV1.15B25,2013-07-24 09:41:00,
2013-07-24 19:46:00,57.3,46.0,30.35,SSW,210,5.0,8.0,66,0.00,,,0.00,0,WeatherCatV1.15B25,2013-07-24 09:46:00,
2013-07-24 19:51:00,57.3,46.4,30.35,South,186,9.0,12.0,67,0.00,,,0.00,0,WeatherCatV1.15B25,2013-07-24 09:51:00,
2013-07-24 19:56:00,57.2,45.9,30.35,South,191,3.0,13.0,66,0.00,,,0.00,0,WeatherCatV1.15B25,2013-07-24 09:56:00,
2013-07-24 20:01:00,57.2,45.9,30.35,SW,225,1.0,7.0,66,0.00,,,0.00,0,WeatherCatV1.15B25,2013-07-24 10:01:00,
2013-07-24 20:06:00,57.0,46.2,30.35,WSW,247,6.0,6.0,67,0.00,,,0.00,0,WeatherCatV1.15B25,2013-07-24 10:06:00,
2013-07-24 20:11:00,56.9,46.1,30.35,SW,225,3.0,9.0,67,0.00,,,0.00,0,WeatherCatV1.15B25,2013-07-24 10:11:00,
2013-07-24 20:16:00,56.7,45.9,30.35,SW,218,8.0,8.0,67,0.00,,,0.00,0,WeatherCatV1.15B25,2013-07-24 10:16:00,
2013-07-24 20:21:00,56.7,45.9,30.35,SW,217,7.0,7.0,67,0.00,,,0.00,0,WeatherCatV1.15B25,2013-07-24 10:21:00,
2013-07-24 20:26:00,56.6,45.4,30.35,South,181,3.0,11.0,66,0.00,,,0.00,0,WeatherCatV1.15B25,2013-07-24 10:26:00,
2013-07-24 20:31:00,56.5,45.3,30.36,South,173,7.0,10.0,66,0.00,,,0.00,0,WeatherCatV1.15B25,2013-07-24 10:31:00,
2013-07-24 20:36:00,56.5,45.3,30.35,SW,232,7.0,12.0,66,0.00,,,0.00,0,WeatherCatV1.15B25,2013-07-24 10:36:00,
2013-07-24 20:41:00,56.4,45.2,30.36,SW,222,4.0,10.0,66,0.00,,,0.00,0,WeatherCatV1.15B25,2013-07-24 10:41:00,
2013-07-24 20:46:00,56.3,45.1,30.35,South,181,5.0,11.0,66,0.00,,,0.00,0,WeatherCatV1.15B25,2013-07-24 10:46:00,
2013-07-24 20:51:00,56.1,44.9,30.35,SW,215,6.0,8.0,66,0.00,,,0.00,0,WeatherCatV1.15B25,2013-07-24 10:51:00,
2013-07-24 20:56:00,55.9,45.1,30.35,SW,229,1.0,8.0,67,0.00,,,0.00,0,WeatherCatV1.15B25,2013-07-24 10:56:00,
2013-07-24 21:01:00,55.8,45.0,30.35,SW,217,5.0,6.0,67,0.00,,,0.00,0,WeatherCatV1.15B25,2013-07-24 11:01:00,
2013-07-24 21:06:00,55.7,44.9,30.35,South,187,3.0,14.0,67,0.00,,,0.00,0,WeatherCatV1.15B25,2013-07-24 11:06:00,
2013-07-24 21:11:00,55.6,44.4,30.35,South,184,5.0,7.0,66,0.00,,,0.00,0,WeatherCatV1.15B25,2013-07-24 11:11:00,
2013-07-24 21:16:00,55.6,44.4,30.35,SW,229,6.0,10.0,66,0.00,,,0.00,0,WeatherCatV1.15B25,2013-07-24 11:16:00,
2013-07-24 21:21:00,55.5,44.3,30.35,South,186,5.0,6.0,66,0.00,,,0.00,0,WeatherCatV1.15B25,2013-07-24 11:21:00,
2013-07-24 21:26:00,55.5,44.3,30.35,SSW,208,6.0,13.0,66,0.00,,,0.00,0,WeatherCatV1.15B25,2013-07-24 11:26:00,
2013-07-24 21:31:00,55.5,44.3,30.35,SW,229,5.0,8.0,66,0.00,,,0.00,0,WeatherCatV1.15B25,2013-07-24 11:31:00,
2013-07-24 21:36:00,55.3,44.1,30.35,SSW,205,4.0,9.0,66,0.00,,,0.00,0,WeatherCatV1.15B25,2013-07-24 11:36:00,
2013-07-24 21:41:00,55.3,44.5,30.35,WSW,238,2.0,9.0,67,0.00,,,0.00,0,WeatherCatV1.15B25,2013-07-24 11:41:00,
2013-07-24 21:46:00,55.2,44.4,30.35,South,180,4.0,7.0,67,0.00,,,0.00,0,WeatherCatV1.15B25,2013-07-24 11:46:00,
2013-07-24 21:51:00,55.1,44.3,30.35,SW,225,7.0,11.0,67,0.00,,,0.00,0,WeatherCatV1.15B25,2013-07-24 11:51:00,
2013-07-24 21:56:00,55.0,44.2,30.35,SW,218,3.0,11.0,67,0.00,,,0.00,0,WeatherCatV1.15B25,2013-07-24 11:56:00,
2013-07-24 22:01:00,55.0,44.2,30.35,SW,217,8.0,14.0,67,0.00,,,0.00,0,WeatherCatV1.15B25,2013-07-24 12:01:00,
2013-07-24 22:06:00,55.0,44.2,30.35,SSW,196,5.0,7.0,67,0.00,,,0.00,0,WeatherCatV1.15B25,2013-07-24 12:06:00,
2013-07-24 22:11:00,54.9,44.1,30.35,SW,228,2.0,5.0,67,0.00,,,0.00,0,WeatherCatV1.15B25,2013-07-24 12:11:00,
2013-07-24 22:16:00,54.9,44.1,30.35,WSW,244,4.0,10.0,67,0.00,,,0.00,0,WeatherCatV1.15B25,2013-07-24 12:16:00,
2013-07-24 22:21:00,54.8,44.1,30.35,South,187,5.0,10.0,67,0.00,,,0.00,0,WeatherCatV1.15B25,2013-07-24 12:21:00,
2013-07-24 22:26:00,54.8,44.1,30.35,SSW,213,5.0,10.0,67,0.00,,,0.00,0,WeatherCatV1.15B25,2013-07-24 12:26:00,
2013-07-24 22:31:00,54.7,44.0,30.35,South,188,5.0,7.0,67,0.00,,,0.00,0,WeatherCatV1.15B25,2013-07-24 12:31:00,
2013-07-24 22:36:00,54.7,44.0,30.35,South,175,6.0,8.0,67,0.00,,,0.00,0,WeatherCatV1.15B25,2013-07-24 12:36:00,
2013-07-24 22:41:00,54.8,44.1,30.35,South,180,3.0,10.0,67,0.00,,,0.00,0,WeatherCatV1.15B25,2013-07-24 12:41:00,
2013-07-24 22:46:00,54.9,43.8,30.35,SSW,207,7.0,8.0,66,0.00,,,0.00,0,WeatherCatV1.15B25,2013-07-24 12:46:00,
2013-07-24 22:51:00,55.0,43.9,30.35,SW,219,5.0,11.0,66,0.00,,,0.00,0,WeatherCatV1.15B25,2013-07-24 12:51:00,
2013-07-24 22:56:00,55.0,43.9,30.35,South,184,1.0,9.0,66,0.00,,,0.00,0,WeatherCatV1.15B25,2013-07-24 12:56:00,
2013-07-24 23:01:00,55.0,43.9,30.35,SW,230,4.0,9.0,66,0.00,,,0.00,0,WeatherCatV1.15B25,2013-07-24 13:01:00,
2013-07-24 23:06:00,54.9,43.8,30.35,South,180,6.0,10.0,66,0.00,,,0.00,0,WeatherCatV1.15B25,2013-07-24 13:06:00,
2013-07-24 23:11:00,55.0,44.2,30.35,South,181,5.0,10.0,67,0.00,,,0.00,0,WeatherCatV1.15B25,2013-07-24 13:11:00,
2013-07-24 23:16:00,55.0,44.2,30.35,South,179,1.0,8.0,67,0.00,,,0.00,0,WeatherCatV1.15B25,2013-07-24 13:16:00,
2013-07-24 23:21:00,55.0,44.2,30.35,South,179,2.0,7.0,67,0.00,,,0.00,0,WeatherCatV1.15B25,2013-07-24 13:21:00,
2013-07-24 23:26:00,55.0,44.2,30.35,WSW,242,2.0,10.0,67,0.00,,,0.00,0,WeatherCatV1.15B25,2013-07-24 13:26:00,
2013-07-24 23:31:00,55.1,44.3,30.35,SSW,213,1.0,6.0,67,0.00,,,0.00,0,WeatherCatV1.15B25,2013-07-24 13:31:00,
2013-07-24 23:36:00,55.1,44.3,30.35,South,181,2.0,7.0,67,0.00,,,0.00,0,WeatherCatV1.15B25,2013-07-24 13:36:00,
2013-07-24 23:41:00,55.0,44.2,30.35,SSW,204,4.0,8.0,67,0.00,,,0.00,0,WeatherCatV1.15B25,2013-07-24 13:41:00,
2013-07-24 23:46:00,55.1,44.7,30.35,SW,227,3.0,7.0,68,0.00,,,0.00,0,WeatherCatV1.15B25,2013-07-24 13:46:00,
2013-07-24 23:51:00,55.0,44.2,30.35,SSW,193,2.0,6.0,67,0.00,,,0.00,0,WeatherCatV1.15B25,2013-07-24 13:51:00,
2013-07-24 23:56:00,54.9,44.1,30.35,SSW,206,4.0,7.0,67,0.00,,,0.00,0,WeatherCatV1.15B25,2013-07-24 13:56:00,